Location: Carrières
(48.9495°N, 2.0407°E)
Time: 22:15:03
(UTC+00:00)

Cosmos 676 Rocket - Visible Passes

Search period start: 27 May 2024 00:00
Search period end: 06 June 2024 00:00
Orbit: 751 x 782 km, 74.0° (Epoch: 26 May)

Date Brightness Start Highest point End Pass type
(mag) Time Alt. Az. Time Alt. Az. Time Alt. Az.
27 May 5.4 01:35:43 14° WSW 01:39:31 29° NW 01:44:11 10° N visible
27 May 5.1 23:18:32 27° SE 23:19:59 31° E 23:24:39 10° NE visible
28 May 4.8 00:58:45 22° WSW 01:01:52 44° WNW 01:06:59 10° NNE visible
28 May 6.6 02:44:25 10° NW 02:45:25 10° NW 02:46:26 10° NNW visible
28 May 5.6 22:41:33 18° ESE 22:42:51 20° E 22:46:36 10° NE visible
29 May 4.2 00:21:46 31° SW 00:24:20 68° WNW 00:29:41 10° NNE visible
29 May 6.3 02:04:27 10° WNW 02:07:27 15° NW 02:10:27 10° N visible
29 May 6.1 22:04:33 11° ESE 22:05:49 12° E 22:07:38 10° ENE visible
29 May 4.0 23:44:46 37° S 23:46:54 77° ESE 23:52:15 10° NNE visible
30 May 6.0 01:25:34 10° W 01:29:35 21° NW 01:33:37 10° N visible
30 May 4.4 23:07:42 33° SSE 23:09:35 48° ESE 23:14:42 10° NNE visible
31 May 5.5 00:47:55 14° WSW 00:51:50 31° NW 00:56:33 10° N visible
31 May 5.1 22:30:37 24° SE 22:32:21 30° E 22:36:56 10° NE visible
01 Jun 4.8 00:10:50 20° SW 00:14:11 46° WNW 00:19:21 10° NNE visible
01 Jun 6.6 01:56:19 10° NW 01:57:42 11° NW 01:59:04 10° NNW visible
01 Jun 5.6 21:53:29 16° ESE 21:55:14 19° E 21:58:50 10° NE visible
01 Jun 4.2 23:33:41 27° SW 23:36:40 72° WNW 23:42:01 10° NNE visible
02 Jun 6.4 01:16:36 10° W 01:19:44 15° NW 01:22:52 10° N visible
02 Jun 6.0 21:16:49 10° ESE 21:18:12 11° E 21:19:36 10° ENE visible
02 Jun 4.0 22:56:31 29° S 22:59:15 73° ESE 23:04:35 10° NNE visible
03 Jun 6.0 00:37:47 10° W 00:41:53 22° NW 00:45:59 10° N visible
03 Jun 4.4 22:19:17 25° SSE 22:21:56 45° ESE 22:27:00 10° NNE visible
03 Jun 5.5 23:59:28 10° WSW 00:04:08 32° NW 00:08:54 10° N visible
04 Jun 5.1 21:41:59 18° SE 21:44:43 28° E 21:49:13 10° NE visible
04 Jun 4.8 23:22:10 14° SW 23:26:31 48° WNW 23:31:41 10° NNE visible
05 Jun 6.7 01:08:19 10° NW 01:09:57 11° NW 01:11:37 10° NNW visible
05 Jun 5.6 21:04:37 12° SE 21:07:36 18° E 21:11:02 10° NE visible
05 Jun 4.2 22:44:48 17° SSW 22:48:59 75° WNW 22:54:20 10° NNE visible
